When you browse on this site, cookies collect data to enhance your experience and personalize the content and advertising you see.
Visit our Privacy Policy to learn more. By continuing to use the site, you agree to this use of cookies and data.
  • In United Kingdom
  • List of Countries
  • For 7 days
  • Water Temperature
  • Weather Map
  • Weather Widgets
  • user-avatar
    Login

    Hourly Weather Mochudi

    Today, 29 February, Saturday

    Time Temperature Precipitation Wind Pressure Humidity
    00:00 +26°C° 0 mm 6 mps 681 mmHg 48%
    01:00 +24°C° 0 mm 6 mps 681 mmHg 55%
    02:00 +22°C° 0 mm 6 mps 681 mmHg 62%
    03:00 +22°C° 0 mm 5 mps 682 mmHg 63%
    04:00 +21°C° 0 mm 5 mps 682 mmHg 63%
    05:00 +21°C° 0 mm 5 mps 682 mmHg 64%
    06:00 +21°C° 0 mm 6 mps 682 mmHg 63%
    07:00 +21°C° 0 mm 6 mps 683 mmHg 61%
    08:00 +22°C° 0 mm 7 mps 683 mmHg 59%
    09:00 +24°C° 0 mm 7 mps 684 mmHg 53%
    10:00 +26°C° 0 mm 7 mps 684 mmHg 48%
    11:00 +28°C° 0 mm 7 mps 684 mmHg 42%
    12:00 +29°C° 0 mm 6 mps 684 mmHg 40%
    13:00 +30°C° 0 mm 6 mps 683 mmHg 38%
    14:00 +32°C° 0 mm 6 mps 683 mmHg 36%
    15:00 +32°C° 0 mm 5 mps 682 mmHg 36%
    16:00 +30°C° 0 mm 5 mps 682 mmHg 37%
    17:00 +30°C° 0 mm 4 mps 681 mmHg 37%
    18:00 +29°C° 0 mm 4 mps 682 mmHg 40%
    19:00 +28°C° 0 mm 4 mps 682 mmHg 43%
    20:00 +26°C° 0 mm 3 mps 682 mmHg 46%
    21:00 +25°C° 0 mm 4 mps 682 mmHg 48%
    22:00 +25°C° 0 mm 4 mps 683 mmHg 50%
    23:00 +23°C° 0 mm 4 mps 683 mmHg 52%

    Tomorrow, 1 March, Sunday

    Time Temperature Precipitation Wind Pressure Humidity
    00:00 +22°C° 0 mm 4 mps 682 mmHg 56%
    01:00 +21°C° 0 mm 4 mps 682 mmHg 60%
    02:00 +20°C° 0 mm 4 mps 682 mmHg 63%
    03:00 +19°C° 0 mm 4 mps 682 mmHg 67%
    04:00 +19°C° 0 mm 3 mps 682 mmHg 70%
    05:00 +18°C° 0 mm 3 mps 682 mmHg 73%
    06:00 +19°C° 0 mm 4 mps 682 mmHg 71%
    07:00 +19°C° 0 mm 4 mps 683 mmHg 70%
    08:00 +20°C° 0 mm 4 mps 683 mmHg 68%
    09:00 +21°C° 0 mm 5 mps 684 mmHg 63%
    10:00 +22°C° 0 mm 5 mps 684 mmHg 57%
    11:00 +25°C° 0 mm 5 mps 684 mmHg 52%
    12:00 +27°C° 0 mm 4 mps 683 mmHg 46%
    13:00 +28°C° 0 mm 3 mps 683 mmHg 41%
    14:00 +30°C° 0 mm 3 mps 682 mmHg 35%
    15:00 +30°C° 0 mm 3 mps 682 mmHg 33%
    16:00 +31°C° 0 mm 2 mps 681 mmHg 32%
    17:00 +31°C° 0 mm 2 mps 680 mmHg 30%
    18:00 +29°C° 0 mm 2 mps 680 mmHg 35%
    19:00 +28°C° 0 mm 2 mps 680 mmHg 39%
    20:00 +26°C° 0 mm 2 mps 680 mmHg 43%
    21:00 +25°C° 0 mm 2 mps 681 mmHg 46%
    22:00 +24°C° 0 mm 2 mps 681 mmHg 49%
    23:00 +23°C° 0 mm 2 mps 681 mmHg 52%

    Day after tomorrow, 2 March, Monday

    Time Temperature Precipitation Wind Pressure Humidity
    00:00 +23°C° 0 mm 2 mps 681 mmHg 55%
    01:00 +21°C° 0 mm 2 mps 681 mmHg 58%
    02:00 +21°C° 0 mm 2 mps 681 mmHg 62%
    03:00 +20°C° 0 mm 3 mps 681 mmHg 67%
    04:00 +20°C° 0 mm 3 mps 681 mmHg 72%
    05:00 +19°C° 0 mm 3 mps 680 mmHg 77%
    06:00 +20°C° 0 mm 3 mps 681 mmHg 73%
    07:00 +20°C° 0 mm 3 mps 681 mmHg 68%
    08:00 +21°C° 0 mm 3 mps 682 mmHg 63%
    09:00 +24°C° 0 mm 3 mps 682 mmHg 56%
    10:00 +26°C° 0 mm 3 mps 682 mmHg 48%
    11:00 +28°C° 0 mm 2 mps 682 mmHg 40%
    12:00 +30°C° 0 mm 3 mps 682 mmHg 36%
    13:00 +31°C° 0 mm 3 mps 681 mmHg 32%
    14:00 +34°C° 0 mm 4 mps 681 mmHg 28%
    15:00 +34°C° 0 mm 4 mps 680 mmHg 27%
    16:00 +34°C° 0 mm 3 mps 680 mmHg 27%
    17:00 +34°C° 0 mm 3 mps 680 mmHg 26%
    18:00 +30°C° 0.3 mm 3 mps 680 mmHg 37%
    19:00 +27°C° 0.3 mm 3 mps 680 mmHg 48%
    20:00 +24°C° 0.3 mm 3 mps 680 mmHg 58%
    21:00 +22°C° 0.7 mm 3 mps 680 mmHg 64%
    22:00 +21°C° 0.7 mm 2 mps 680 mmHg 70%
    23:00 +22°C° 0.7 mm 1 mps 680 mmHg 76%

    3 March, Tuesday

    Time Temperature Precipitation Wind Pressure Humidity
    00:00 +21°C° 0 mm 1 mps 680 mmHg 78%
    01:00 +20°C° 0 mm 2 mps 680 mmHg 80%
    02:00 +20°C° 0 mm 2 mps 680 mmHg 82%
    03:00 +19°C° 0 mm 2 mps 680 mmHg 84%
    04:00 +19°C° 0 mm 2 mps 680 mmHg 85%
    05:00 +19°C° 0 mm 1 mps 680 mmHg 87%
    06:00 +19°C° 0 mm 2 mps 681 mmHg 83%
    07:00 +20°C° 0 mm 3 mps 681 mmHg 79%
    08:00 +21°C° 0 mm 3 mps 682 mmHg 75%
    09:00 +24°C° 0 mm 3 mps 682 mmHg 65%
    10:00 +27°C° 0 mm 3 mps 682 mmHg 55%
    11:00 +29°C° 0 mm 3 mps 683 mmHg 45%
    12:00 +30°C° 0 mm 3 mps 682 mmHg 39%
    13:00 +33°C° 0 mm 3 mps 682 mmHg 33%
    14:00 +34°C° 0 mm 3 mps 682 mmHg 28%
    15:00 +34°C° 0 mm 3 mps 681 mmHg 28%
    16:00 +34°C° 0 mm 3 mps 681 mmHg 28%
    17:00 +33°C° 0 mm 3 mps 681 mmHg 29%
    18:00 +30°C° 0 mm 3 mps 681 mmHg 33%
    19:00 +29°C° 0 mm 3 mps 681 mmHg 38%
    20:00 +27°C° 0 mm 3 mps 681 mmHg 43%
    21:00 +26°C° 0 mm 3 mps 682 mmHg 46%
    22:00 +26°C° 0 mm 3 mps 682 mmHg 49%
    23:00 +25°C° 0 mm 4 mps 682 mmHg 52%

    4 March, Wednesday

    Time Temperature Precipitation Wind Pressure Humidity
    00:00 +23°C° 0 mm 4 mps 682 mmHg 57%
    01:00 +22°C° 0 mm 4 mps 682 mmHg 63%
    02:00 +21°C° 0 mm 4 mps 682 mmHg 68%
    03:00 +21°C° 0 mm 3 mps 683 mmHg 72%
    04:00 +20°C° 0 mm 3 mps 683 mmHg 77%
    05:00 +19°C° 0 mm 3 mps 683 mmHg 81%
    06:00 +20°C° 0 mm 3 mps 684 mmHg 75%
    07:00 +21°C° 0 mm 4 mps 684 mmHg 69%
    08:00 +22°C° 0 mm 4 mps 685 mmHg 64%
    09:00 +25°C° 0 mm 4 mps 685 mmHg 55%
    10:00 +27°C° 0 mm 4 mps 685 mmHg 46%
    11:00 +29°C° 0 mm 4 mps 685 mmHg 37%
    12:00 +30°C° 0 mm 4 mps 685 mmHg 34%
    13:00 +33°C° 0 mm 4 mps 684 mmHg 30%
    14:00 +34°C° 0 mm 4 mps 684 mmHg 26%
    15:00 +34°C° 0 mm 4 mps 683 mmHg 25%
    16:00 +34°C° 0 mm 3 mps 683 mmHg 24%
    17:00 +34°C° 0 mm 3 mps 682 mmHg 24%
    18:00 +31°C° 0 mm 3 mps 682 mmHg 28%
    19:00 +30°C° 0 mm 3 mps 682 mmHg 32%
    20:00 +28°C° 0 mm 3 mps 683 mmHg 36%
    21:00 +26°C° 0 mm 3 mps 683 mmHg 42%
    22:00 +25°C° 0 mm 3 mps 683 mmHg 47%
    23:00 +24°C° 0 mm 3 mps 683 mmHg 52%

    5 March, Thursday

    Time Temperature Precipitation Wind Pressure Humidity
    00:00 +23°C° 0 mm 2 mps 683 mmHg 54%
    01:00 +21°C° 0 mm 2 mps 682 mmHg 56%
    02:00 +21°C° 0 mm 2 mps 682 mmHg 58%
    03:00 +20°C° 0 mm 2 mps 682 mmHg 61%
    04:00 +19°C° 0 mm 2 mps 682 mmHg 64%
    05:00 +19°C° 0 mm 2 mps 683 mmHg 67%
    06:00 +20°C° 0 mm 2 mps 683 mmHg 61%
    07:00 +21°C° 0 mm 3 mps 684 mmHg 56%
    08:00 +22°C° 0 mm 3 mps 684 mmHg 51%
    09:00 +25°C° 0 mm 3 mps 684 mmHg 45%
    10:00 +27°C° 0 mm 2 mps 684 mmHg 39%
    11:00 +30°C° 0 mm 2 mps 684 mmHg 33%
    12:00 +31°C° 0 mm 2 mps 684 mmHg 29%
    13:00 +32°C° 0 mm 2 mps 683 mmHg 26%
    14:00 +35°C° 0 mm 3 mps 683 mmHg 23%
    15:00 +35°C° 0 mm 3 mps 682 mmHg 22%
    16:00 +35°C° 0 mm 3 mps 681 mmHg 21%
    17:00 +35°C° 0 mm 4 mps 681 mmHg 20%
    18:00 +31°C° 0 mm 3 mps 681 mmHg 23%
    19:00 +29°C° 0 mm 2 mps 681 mmHg 26%
    20:00 +27°C° 0 mm 1 mps 680 mmHg 29%
    21:00 +26°C° 0 mm 1 mps 680 mmHg 32%
    22:00 +25°C° 0 mm 1 mps 681 mmHg 34%
    23:00 +24°C° 0 mm 1 mps 681 mmHg 36%
    Show more